• In Kazakhstan
  • List of Countries
  • For 7 days
  • Water Temperature
  • Satellite Maps
  • Weather Map
  • News
  • Weather Widgets
  • user-avatar
    Login

    Hourly Weather Arvada

    Today, 25 November, Saturday

    Time Temperature Precipitation Wind Pressure Humidity
    00:00 +6°C° 0 mm 2 mps 623 mmHg 59%
    01:00 +5°C° 0 mm 2 mps 623 mmHg 60%
    02:00 +5°C° 0 mm 2 mps 624 mmHg 61%
    03:00 +5°C° 0 mm 2 mps 624 mmHg 61%
    04:00 +4°C° 0 mm 2 mps 624 mmHg 60%
    05:00 +4°C° 0 mm 2 mps 624 mmHg 60%
    06:00 +5°C° 0 mm 2 mps 624 mmHg 56%
    07:00 +5°C° 0 mm 2 mps 625 mmHg 53%
    08:00 +6°C° 0 mm 2 mps 625 mmHg 49%
    09:00 +8°C° 0 mm 2 mps 626 mmHg 41%
    10:00 +11°C° 0 mm 3 mps 627 mmHg 32%
    11:00 +13°C° 0 mm 3 mps 628 mmHg 24%
    12:00 +14°C° 0 mm 3 mps 627 mmHg 23%
    13:00 +16°C° 0 mm 3 mps 627 mmHg 21%
    14:00 +16°C° 0 mm 3 mps 627 mmHg 20%
    15:00 +13°C° 0 mm 3 mps 627 mmHg 23%
    16:00 +11°C° 0 mm 3 mps 626 mmHg 27%
    17:00 +9°C° 0 mm 2 mps 626 mmHg 31%
    18:00 +9°C° 0 mm 3 mps 626 mmHg 31%
    19:00 +9°C° 0 mm 3 mps 626 mmHg 31%
    20:00 +8°C° 0 mm 3 mps 627 mmHg 31%
    21:00 +9°C° 0 mm 3 mps 627 mmHg 30%
    22:00 +9°C° 0 mm 3 mps 627 mmHg 29%
    23:00 +9°C° 0 mm 3 mps 627 mmHg 28%

    Tomorrow, 26 November, Sunday

    Time Temperature Precipitation Wind Pressure Humidity
    00:00 +9°C° 0 mm 3 mps 627 mmHg 28%
    01:00 +9°C° 0 mm 3 mps 627 mmHg 28%
    02:00 +9°C° 0 mm 3 mps 627 mmHg 28%
    03:00 +9°C° 0 mm 3 mps 627 mmHg 30%
    04:00 +9°C° 0 mm 3 mps 627 mmHg 31%
    05:00 +9°C° 0 mm 3 mps 627 mmHg 32%
    06:00 +9°C° 0 mm 3 mps 627 mmHg 33%
    07:00 +10°C° 0 mm 3 mps 627 mmHg 33%
    08:00 +10°C° 0 mm 3 mps 628 mmHg 34%
    09:00 +13°C° 0 mm 3 mps 628 mmHg 30%
    10:00 +17°C° 0 mm 3 mps 628 mmHg 26%
    11:00 +19°C° 0 mm 2 mps 629 mmHg 23%
    12:00 +20°C° 0 mm 2 mps 628 mmHg 22%
    13:00 +21°C° 0 mm 2 mps 628 mmHg 21%
    14:00 +23°C° 0 mm 2 mps 627 mmHg 20%
    15:00 +19°C° 0 mm 2 mps 626 mmHg 24%
    16:00 +17°C° 0 mm 2 mps 625 mmHg 29%
    17:00 +14°C° 0 mm 2 mps 624 mmHg 33%
    18:00 +13°C° 0 mm 3 mps 624 mmHg 34%
    19:00 +12°C° 0 mm 3 mps 624 mmHg 35%
    20:00 +12°C° 0 mm 3 mps 624 mmHg 36%
    21:00 +11°C° 0 mm 3 mps 624 mmHg 36%
    22:00 +11°C° 0 mm 3 mps 623 mmHg 36%
    23:00 +10°C° 0 mm 3 mps 623 mmHg 36%

    Day after tomorrow, 27 November, Monday

    Time Temperature Precipitation Wind Pressure Humidity
    00:00 +10°C° 0 mm 3 mps 622 mmHg 35%
    01:00 +10°C° 0 mm 3 mps 621 mmHg 35%
    02:00 +8°C° 0 mm 4 mps 621 mmHg 35%
    03:00 +9°C° 0 mm 3 mps 620 mmHg 35%
    04:00 +9°C° 0 mm 3 mps 619 mmHg 35%
    05:00 +9°C° 0 mm 3 mps 619 mmHg 35%
    06:00 +9°C° 0 mm 3 mps 619 mmHg 34%
    07:00 +8°C° 0 mm 4 mps 619 mmHg 34%
    08:00 +10°C° 0 mm 4 mps 619 mmHg 33%
    09:00 +13°C° 0 mm 4 mps 619 mmHg 27%
    10:00 +16°C° 0 mm 5 mps 619 mmHg 21%
    11:00 +20°C° 0 mm 5 mps 619 mmHg 15%
    12:00 +21°C° 0 mm 5 mps 618 mmHg 15%
    13:00 +21°C° 0 mm 6 mps 617 mmHg 14%
    14:00 +22°C° 0 mm 6 mps 617 mmHg 13%
    15:00 +19°C° 0 mm 5 mps 616 mmHg 17%
    16:00 +16°C° 0 mm 5 mps 615 mmHg 21%
    17:00 +13°C° 0 mm 4 mps 614 mmHg 26%
    18:00 +12°C° 0 mm 4 mps 614 mmHg 29%
    19:00 +11°C° 0 mm 4 mps 614 mmHg 32%
    20:00 +10°C° 0 mm 3 mps 614 mmHg 35%
    21:00 +8°C° 0 mm 4 mps 615 mmHg 40%
    22:00 +7°C° 0 mm 4 mps 616 mmHg 45%
    23:00 +6°C° 0 mm 5 mps 617 mmHg 50%

    28 November, Tuesday

    Time Temperature Precipitation Wind Pressure Humidity
    00:00 +3°C° 0.3 mm 5 mps 618 mmHg 58%
    01:00 +1°C° 0.3 mm 5 mps 618 mmHg 67%
    02:00 -1°C° 0.3 mm 5 mps 619 mmHg 76%
    03:00 -1°C° 0.2 mm 4 mps 620 mmHg 73%
    04:00 0°C° 0.2 mm 3 mps 621 mmHg 70%
    05:00 0°C° 0.2 mm 3 mps 622 mmHg 66%
    06:00 +1°C° 0 mm 2 mps 623 mmHg 64%
    07:00 +1°C° 0 mm 2 mps 624 mmHg 62%
    08:00 -1°C° 0 mm 2 mps 624 mmHg 59%
    09:00 +2°C° 0 mm 2 mps 625 mmHg 52%
    10:00 +2°C° 0 mm 3 mps 625 mmHg 45%
    11:00 +4°C° 0 mm 3 mps 625 mmHg 39%
    12:00 +5°C° 0 mm 3 mps 625 mmHg 37%
    13:00 +7°C° 0 mm 3 mps 625 mmHg 35%
    14:00 +8°C° 0 mm 3 mps 625 mmHg 34%
    15:00 +5°C° 0 mm 3 mps 624 mmHg 38%
    16:00 +4°C° 0 mm 3 mps 624 mmHg 43%
    17:00 +3°C° 0 mm 3 mps 624 mmHg 48%
    18:00 +2°C° 0 mm 3 mps 624 mmHg 48%
    19:00 +2°C° 0 mm 3 mps 624 mmHg 48%
    20:00 +1°C° 0 mm 3 mps 625 mmHg 48%
    21:00 +1°C° 0 mm 3 mps 625 mmHg 47%
    22:00 +2°C° 0 mm 2 mps 624 mmHg 46%
    23:00 +2°C° 0 mm 2 mps 624 mmHg 45%

    29 November, Wednesday

    Time Temperature Precipitation Wind Pressure Humidity
    00:00 +1°C° 0 mm 2 mps 624 mmHg 46%
    01:00 +1°C° 0 mm 2 mps 624 mmHg 47%
    02:00 +1°C° 0 mm 2 mps 623 mmHg 47%
    03:00 -1°C° 0 mm 2 mps 623 mmHg 46%
    04:00 -1°C° 0 mm 2 mps 623 mmHg 46%
    05:00 -1°C° 0 mm 2 mps 623 mmHg 45%
    06:00 +1°C° 0 mm 2 mps 623 mmHg 42%
    07:00 +1°C° 0 mm 2 mps 624 mmHg 39%
    08:00 +2°C° 0 mm 2 mps 624 mmHg 36%
    09:00 +4°C° 0 mm 2 mps 624 mmHg 32%
    10:00 +5°C° 0 mm 3 mps 625 mmHg 28%
    11:00 +8°C° 0 mm 3 mps 625 mmHg 24%
    12:00 +8°C° 0 mm 3 mps 625 mmHg 24%
    13:00 +7°C° 0 mm 4 mps 624 mmHg 24%
    14:00 +8°C° 0 mm 4 mps 624 mmHg 24%
    15:00 +6°C° 0 mm 4 mps 625 mmHg 29%
    16:00 +4°C° 0 mm 4 mps 625 mmHg 35%
    17:00 +3°C° 0 mm 4 mps 626 mmHg 40%
    18:00 +1°C° 0 mm 4 mps 627 mmHg 40%
    19:00 +1°C° 0 mm 4 mps 628 mmHg 41%
    20:00 0°C° 0 mm 5 mps 629 mmHg 41%
    21:00 -1°C° 0 mm 4 mps 629 mmHg 43%
    22:00 -1°C° 0 mm 3 mps 629 mmHg 44%
    23:00 -2°C° 0 mm 3 mps 630 mmHg 46%

    30 November, Thursday

    Time Temperature Precipitation Wind Pressure Humidity
    00:00 -3°C° 0 mm 2 mps 630 mmHg 48%
    01:00 -3°C° 0 mm 2 mps 630 mmHg 50%
    02:00 -2°C° 0 mm 1 mps 630 mmHg 51%
    03:00 -4°C° 0 mm 2 mps 630 mmHg 52%
    04:00 -4°C° 0 mm 2 mps 630 mmHg 52%
    05:00 -5°C° 0 mm 2 mps 631 mmHg 52%
    06:00 -4°C° 0 mm 2 mps 631 mmHg 48%
    07:00 -3°C° 0 mm 2 mps 632 mmHg 43%
    08:00 -2°C° 0 mm 2 mps 632 mmHg 39%
    09:00 +1°C° 0 mm 2 mps 632 mmHg 32%
    10:00 +4°C° 0 mm 2 mps 632 mmHg 24%
    11:00 +7°C° 0 mm 2 mps 632 mmHg 17%
    12:00 +7°C° 0 mm 2 mps 632 mmHg 17%
    13:00 +8°C° 0 mm 2 mps 631 mmHg 16%
    14:00 +9°C° 0 mm 2 mps 630 mmHg 15%
    15:00 +7°C° 0 mm 2 mps 630 mmHg 19%
    16:00 +5°C° 0 mm 2 mps 629 mmHg 24%
    17:00 +3°C° 0 mm 2 mps 628 mmHg 28%
    18:00 +2°C° 0 mm 2 mps 628 mmHg 29%
    19:00 +2°C° 0 mm 2 mps 628 mmHg 31%
    20:00 +1°C° 0 mm 2 mps 628 mmHg 32%
    21:00 +1°C° 0 mm 2 mps 628 mmHg 31%
    22:00 +1°C° 0 mm 2 mps 628 mmHg 29%
    23:00 0°C° 0 mm 3 mps 628 mmHg 27%
    Show more